THEMIS D

Last updated on Aug. 13, 2020, 5:29 a.m. UTC

1 30797U 07004D   20225.43384392 -.00000286  00000-0 -51529-1 0  9995
2 30797  13.3429  23.5621 8368271  61.3434 356.8695  0.87839140 46726
UTC
Height (km)
Latitude
Longitude
Inclination
Orbital Period
UTC large
Height (km)
Speed (km/s)
/
Latitude / Longitude
Inclination (degrees)
Orbital Period (minutes)
Azimuth
Elevation
Range (km)
Doppler Factor
iOS Compass Heading
iOS Angle

Next 30 passes for location: Hong Kong

Rise time Rise Azimuth (degrees) Set time Set Azimuth (degrees) Duration Max altitude (degrees)

No matching passes for this satellites